This is the latest recevied weather packets stored in our database for station/object XQ6AK-15. If no packets are shown the sender has not sent any weather packets the latest 10 day(s).
| Time | Temp. | Humidity | Pressure | Rain* | Wind** | Luminosity | Snow |
|---|---|---|---|---|---|---|---|
| 1778364751 | 7.78° C | 87% | 1023.3 hPa | 0 mm | - | 0 W/m² | - |
| 1778364446 | 8.33° C | 86% | 1023.3 hPa | 0 mm | - | 0 W/m² | - |
| 1778364143 | 8.89° C | 84% | 1023.2 hPa | 0 mm | - | 0 W/m² | - |
| 1778363839 | 9.44° C | 83% | 1023.3 hPa | 0 mm | - | 0 W/m² | - |
| 1778363536 | 10° C | 81% | 1023.4 hPa | 0 mm | - | 3 W/m² | - |
| 1778363233 | 10° C | 79% | 1023.5 hPa | 0 mm | - | 6 W/m² | - |
| 1778362930 | 10.56° C | 77% | 1023.5 hPa | 0 mm | - | 9 W/m² | - |
| 1778362627 | 10.56° C | 76% | 1023.5 hPa | 0 mm | - | 12 W/m² | - |
| 1778362322 | 11.11° C | 74% | 1023.7 hPa | 0 mm | - | 16 W/m² | - |
| 1778362020 | 11.67° C | 70% | 1023.7 hPa | 0 mm | - | 19 W/m² | - |
| 1778361716 | 11.67° C | 70% | 1023.6 hPa | 0 mm | - | 21 W/m² | - |
| 1778361412 | 12.22° C | 67% | 1023.9 hPa | 0 mm | - | 26 W/m² | - |
| 1778361109 | 12.22° C | 67% | 1023.9 hPa | 0 mm | - | 29 W/m² | - |
| 1778360806 | 12.22° C | 65% | 1023.9 hPa | 0 mm | - | 32 W/m² | - |
| 1778360503 | 12.78° C | 63% | 1023.9 hPa | 0 mm | - | 39 W/m² | - |
| 1778360198 | 12.78° C | 64% | 1023.7 hPa | 0 mm | - | 42 W/m² | - |
| 1778359892 | 12.78° C | 63% | 1023.8 hPa | 0 mm | - | 43 W/m² | - |
| 1778359589 | 12.78° C | 67% | 1024 hPa | 0 mm | - | 43 W/m² | - |
| 1778359285 | 12.78° C | 63% | 1023.8 hPa | 0 mm | - | 44 W/m² | - |
| 1778358981 | 12.78° C | 64% | 1023.9 hPa | 0 mm | - | 47 W/m² | - |
| 1778358680 | 13.33° C | 65% | 1023.8 hPa | 0 mm | - | 50 W/m² | - |
| 1778358380 | 13.33° C | 64% | 1023.7 hPa | 0 mm | - | 85 W/m² | - |
| 1778358075 | 13.33° C | 64% | 1023.8 hPa | 0 mm | - | 75 W/m² | - |
| 1778357770 | 13.33° C | 62% | 1023.8 hPa | 0 mm | - | 62 W/m² | - |
| 1778357469 | 13.33° C | 62% | 1023.7 hPa | 0 mm | - | 62 W/m² | - |
* Rain latest hour (hover to see other rain measurements)
** Current wind speed in m/s (hover to see current wind gust speed)